Tracking 23752 objects as of 24-Oct-2021
HD Live streaming from Space Station
objects crossing your sky now

FAISAT

Track FAISAT now!
10-day predictions
FAISAT is classified as:


NORAD ID: 23465
Int'l Code: 1995-002C
Perigee: 972.6 km
Apogee: 1,027.1 km
Inclination: 82.9 °
Period: 105.0 minutes
Semi major axis: 7370 km
RCS: 0.6839 m2 (medium)
Launch date: January 24, 1995
Source: United States (US)
Launch site: PLESETSK MISSILE AND SPACE COMPLEX (PKMTR)
aabbcc
Your satellite tracking list
Your tracking list is empty




NASA's NSSDC Master Catalog

Two Line Element Set (TLE):
1 23465U 95002C   21296.75630735  .00000042  00000-0  29656-4 0  9990
2 23465  82.9308 196.8883 0036994 195.2271 219.2612 13.71904205339104
Source of the keplerian elements: AFSPC